GTW540 KSTL-KMKE

Flight info

Callsign GTW540
Flight time N/A
Altitude 35000
Route NATCA5 SPI PNT JOT LEEDN GOPAC3
Aircraft B738/M-SDE2E3FGHIRWXY/LB1

Departure

Time 2026-05-05 00:07
Airport St. Louis Lambert International Airport (KSTL)

Arrival

Time N/A
Airport General Mitchell International Airport (KMKE)
Time Latitude Longitude Altitude Speed Heading
2026-05-04 23:24 38.74448 -90.36707 557 ft 0 kts 253°
2026-05-04 23:53 38.74451 -90.36691 565 ft 4 kts 258°
2026-05-04 23:53 38.74454 -90.36657 562 ft 4 kts 275°
2026-05-04 23:53 38.74451 -90.36630 561 ft 1 kts 283°
2026-05-05 00:00 38.74452 -90.36634 564 ft 2 kts 285°
2026-05-05 00:00 38.74454 -90.36639 555 ft 3 kts 296°
2026-05-05 00:00 38.74539 -90.36671 557 ft 11 kts 354°
2026-05-05 00:00 38.74596 -90.36727 557 ft 11 kts 300°
2026-05-05 00:01 38.74634 -90.36813 559 ft 12 kts 300°
2026-05-05 00:01 38.74680 -90.36906 559 ft 13 kts 303°
2026-05-05 00:01 38.74726 -90.36999 559 ft 12 kts 302°
2026-05-05 00:01 38.74775 -90.37097 562 ft 14 kts 302°
2026-05-05 00:02 38.74834 -90.37216 557 ft 17 kts 303°
2026-05-05 00:02 38.74883 -90.37351 559 ft 17 kts 292°
2026-05-05 00:02 38.74938 -90.37475 559 ft 16 kts 301°
2026-05-05 00:02 38.74996 -90.37593 552 ft 15 kts 302°
2026-05-05 00:03 38.75053 -90.37709 553 ft 16 kts 304°
2026-05-05 00:03 38.75115 -90.37831 546 ft 16 kts 301°
2026-05-05 00:03 38.75170 -90.37946 547 ft 11 kts 302°
2026-05-05 00:03 38.75202 -90.38006 549 ft 8 kts 316°
2026-05-05 00:04 38.75253 -90.38012 546 ft 8 kts 27°
2026-05-05 00:04 38.75295 -90.37980 546 ft 0 kts 32°
2026-05-05 00:04 38.75296 -90.37978 546 ft 0 kts 32°
2026-05-05 00:05 38.75298 -90.37977 546 ft 0 kts 32°
2026-05-05 00:05 38.75301 -90.37975 546 ft 1 kts 32°
2026-05-05 00:05 38.75314 -90.37965 549 ft 4 kts 30°
2026-05-05 00:05 38.75349 -90.37936 545 ft 8 kts 37°
2026-05-05 00:06 38.75359 -90.37853 549 ft 12 kts 116°
2026-05-05 00:06 38.75277 -90.37684 545 ft 49 kts 123°
2026-05-05 00:06 38.74958 -90.37042 556 ft 125 kts 123°
2026-05-05 00:06 38.74373 -90.35822 718 ft 193 kts 121°
2026-05-05 00:07 38.73748 -90.34165 1398 ft 220 kts 122°
2026-05-05 00:07 38.73160 -90.32282 2351 ft 235 kts 104°
2026-05-05 00:07 38.73058 -90.30182 3349 ft 241 kts 101°
2026-05-05 00:07 38.72898 -90.27997 3893 ft 257 kts 101°
2026-05-05 00:08 38.73105 -90.25580 4124 ft 295 kts 68°
2026-05-05 00:08 38.74288 -90.23391 4737 ft 305 kts 47°
2026-05-05 00:08 38.75235 -90.22028 5241 ft 306 kts 42°
2026-05-05 00:08 38.76998 -90.20620 6124 ft 294 kts 12°
2026-05-05 00:09 38.78945 -90.19892 7020 ft 291 kts
2026-05-05 00:09 38.80902 -90.19198 7846 ft 293 kts
2026-05-05 00:09 38.82871 -90.18501 8721 ft 292 kts
2026-05-05 00:09 38.84829 -90.17803 9583 ft 293 kts
2026-05-05 00:10 38.86801 -90.17093 10319 ft 297 kts
2026-05-05 00:10 38.88859 -90.16355 10626 ft 319 kts
2026-05-05 00:10 38.91070 -90.15565 10860 ft 341 kts
2026-05-05 00:10 38.93387 -90.14723 11434 ft 349 kts
2026-05-05 00:11 38.95730 -90.13856 12215 ft 351 kts
2026-05-05 00:11 38.98070 -90.12979 13060 ft 352 kts
2026-05-05 00:11 39.00439 -90.12092 13840 ft 355 kts
2026-05-05 00:11 39.02818 -90.11207 14581 ft 358 kts
2026-05-05 00:12 39.05228 -90.10312 15316 ft 362 kts
2026-05-05 00:12 39.07657 -90.09411 16064 ft 365 kts 10°
2026-05-05 00:12 39.10104 -90.08503 16799 ft 368 kts 10°
2026-05-05 00:12 39.12587 -90.07582 17532 ft 373 kts 10°
2026-05-05 00:13 39.15094 -90.06651 18175 ft 377 kts 10°
2026-05-05 00:13 39.17619 -90.05713 18773 ft 381 kts 10°
2026-05-05 00:13 39.20189 -90.04756 19405 ft 384 kts 11°
2026-05-05 00:13 39.22767 -90.03796 20020 ft 388 kts 11°
2026-05-05 00:14 39.25371 -90.02825 20613 ft 391 kts 11°
2026-05-05 00:14 39.28002 -90.01844 21184 ft 395 kts 11°
2026-05-05 00:14 39.30651 -90.00855 21772 ft 399 kts 11°
2026-05-05 00:14 39.33334 -89.99848 22341 ft 403 kts 12°
2026-05-05 00:15 39.35976 -89.98540 22928 ft 411 kts 19°
2026-05-05 00:15 39.38575 -89.96930 23429 ft 417 kts 22°
2026-05-05 00:15 39.41171 -89.95208 23897 ft 421 kts 23°
2026-05-05 00:15 39.43775 -89.93466 24381 ft 423 kts 22°
2026-05-05 00:16 39.46407 -89.91730 24871 ft 425 kts 22°
2026-05-05 00:16 39.49050 -89.90017 25321 ft 427 kts 21°
2026-05-05 00:16 39.51735 -89.88300 25758 ft 430 kts 21°
2026-05-05 00:16 39.54420 -89.86595 26185 ft 433 kts 21°
2026-05-05 00:17 39.57143 -89.84873 26621 ft 435 kts 21°
2026-05-05 00:17 39.59862 -89.83153 27145 ft 436 kts 21°
2026-05-05 00:17 39.62588 -89.81426 27705 ft 434 kts 21°
2026-05-05 00:17 39.65283 -89.79716 28315 ft 432 kts 21°
2026-05-05 00:18 39.67976 -89.78005 28913 ft 430 kts 21°
2026-05-05 00:18 39.70656 -89.76302 29460 ft 430 kts 21°
2026-05-05 00:18 39.73347 -89.74591 29950 ft 429 kts 21°
2026-05-05 00:18 39.76024 -89.72887 30404 ft 428 kts 21°
2026-05-05 00:19 39.78700 -89.71183 30652 ft 430 kts 21°
2026-05-05 00:19 39.84052 -89.67754 30659 ft 428 kts 23°
2026-05-05 00:20 39.89031 -89.63421 30681 ft 433 kts 32°
2026-05-05 00:20 39.93807 -89.58702 30679 ft 434 kts 33°
2026-05-05 00:21 39.98644 -89.53972 30676 ft 434 kts 32°
2026-05-05 00:21 40.03509 -89.49304 30687 ft 434 kts 32°
2026-05-05 00:22 40.08391 -89.44652 30661 ft 435 kts 32°
2026-05-05 00:22 40.13283 -89.39989 30657 ft 435 kts 32°
2026-05-05 00:23 40.18171 -89.35318 30656 ft 435 kts 32°
2026-05-05 00:23 40.23057 -89.30639 30657 ft 435 kts 32°
2026-05-05 00:24 40.27929 -89.25964 30657 ft 436 kts 32°
2026-05-05 00:24 40.32830 -89.21254 30668 ft 436 kts 32°
2026-05-05 00:25 40.37720 -89.16546 30656 ft 438 kts 32°
2026-05-05 00:25 40.42639 -89.11800 30652 ft 439 kts 32°
2026-05-05 00:26 40.47559 -89.07044 30661 ft 440 kts 33°
2026-05-05 00:26 40.52480 -89.02278 30652 ft 440 kts 33°
2026-05-05 00:27 40.57411 -88.97494 30645 ft 440 kts 33°
2026-05-05 00:27 40.62347 -88.92696 30646 ft 440 kts 33°
2026-05-05 00:28 40.67260 -88.87910 30642 ft 439 kts 33°
2026-05-05 00:28 40.72170 -88.83119 30644 ft 439 kts 33°
2026-05-05 00:29 40.77069 -88.78331 30641 ft 439 kts 33°
2026-05-05 00:29 40.82014 -88.73588 30624 ft 437 kts 28°
2026-05-05 00:30 40.87453 -88.70188 30626 ft 432 kts 18°
2026-05-05 00:30 40.93004 -88.67136 30637 ft 433 kts 18°
2026-05-05 00:31 40.98547 -88.64043 30628 ft 434 kts 18°
2026-05-05 00:31 41.04101 -88.60890 30641 ft 434 kts 19°
2026-05-05 00:32 41.09658 -88.57713 30664 ft 434 kts 19°
2026-05-05 00:32 41.15166 -88.54556 30701 ft 435 kts 19°
2026-05-05 00:33 41.20719 -88.51370 30723 ft 434 kts 19°
2026-05-05 00:33 41.26252 -88.48189 30736 ft 433 kts 19°